This demonstration page uses our WeatherBlox Daily Observations layout. Learn more.

Left ArrowRight Arrow

Hourly Observations for July 3, 2022

Temp ( °F °C ) Dew Point ( °F °C ) Humidity (%) Winds ( mph kmh ) Pressure ( in mb ) Visibility ( mi km ) Precip ( " mm )
12:53 am 00:53 Clear 54 12.2 47 8.3 77 77 ESE 5 7 29.90 1013 10 16 0.00 0.00
1:53 am 01:53 Clear 53 11.7 48 8.9 83 83 W 5 7 29.90 1013 10 16 0.00 0.00
2:53 am 02:53 Clear 53 11.7 46 7.8 77 77 Calm 29.89 1012 10 16 0.00 0.00
3:53 am 03:53 Clear 50 10 46 7.8 86 86 Calm 29.91 1013 10 16 0.00 0.00
4:53 am 04:53 Partly Cloudy 49 9.4 46 7.8 90 90 Calm 29.94 1014 10 16 0.00 0.00
5:53 am 05:53 Sunny 48 8.9 46 7.8 93 93 Calm 29.96 1015 10 16 0.00 0.00
6:53 am 06:53 Sunny 53 11.7 48 8.9 83 83 Calm 29.96 1014 10 16 0.00 0.00
7:53 am 07:53 Sunny 61 16.1 50 10 67 67 Calm 29.93 1014 10 16 0.00 0.00
8:53 am 08:53 Partly Cloudy 71 21.7 50 10 47 47 NE 5 7 29.92 1013 10 16 0.00 0.00
9:53 am 09:53 Sunny 76 24.4 49 9.4 39 39 ESE 8 13 29.90 1012 10 16 0.00 0.00
10:53 am 10:53 Sunny 81 27.2 49 9.4 33 33 N 6 9 29.87 1012 10 16 0.00 0.00
11:53 am 11:53 Partly Cloudy 82 27.8 49 9.4 32 32 SW 10 17 29.87 1012 10 16 0.00 0.00
12:53 pm 12:53 Sunny 83 28.3 49 9.4 31 31 SW 16 26 29.86 1011 10 16 0.00 0.00
1:53 pm 13:53 Mostly Sunny 85 29.4 49 9.4 29 29 S 12 19 29.83 1010 10 16 0.00 0.00
2:22 pm 14:22 Partly Cloudy with Thunderstorms 84 28.9 49 9.4 30 30 SSW 22 35 29.49 999 10 16 0.00 0.00
2:38 pm 14:38 Mostly Cloudy with Thunderstorms 72 22.2 48 8.9 43 43 W 25 41 29.66 1004 10 16 0.00 0.00
2:53 pm 14:53 Cloudy with Strong Thunderstorms 62 16.7 54 12.2 75 75 WNW 5 7 29.96 1014 1 2 0.15 3.81
3:03 pm 15:03 Cloudy with Thunderstorms 65 18.3 57 13.9 76 76 NNW 7 11 29.73 1007 3 5 0.03 0.76
3:15 pm 15:15 Mostly Cloudy 69 20.6 58 14.4 68 68 SE 5 7 29.68 1005 10 16 0.03 0.76
3:53 pm 15:53 Mostly Cloudy 75 23.9 60 15.6 60 60 N 7 11 29.88 1012 10 16 0.03 0.76
4:53 pm 16:53 Mostly Sunny 81 27.2 55 12.8 41 41 ENE 5 7 29.84 1011 10 16 0.00 0.00
5:53 pm 17:53 Mostly Cloudy 82 27.8 52 11.1 35 35 SW 13 20 29.82 1010 10 16 0.00 0.00
6:53 pm 18:53 Sunny 80 26.7 50 10 35 35 S 16 26 29.80 1009 10 16 0.00 0.00
7:53 pm 19:53 Sunny 77 25 49 9.4 37 37 S 10 17 29.79 1009 10 16 0.00 0.00
8:53 pm 20:53 Clear 69 20.6 52 11.1 55 55 Calm 29.80 1009 10 16 0.00 0.00
9:53 pm 21:53 Clear 65 18.3 50 10 59 59 Calm 29.80 1009 10 16 0.00 0.00
10:53 pm 22:53 Clear 60 15.6 51 10.6 72 72 Calm 29.81 1010 10 16 0.00 0.00
11:53 pm 23:53 Clear 60 15.6 51 10.6 72 72 Calm 29.81 1010 10 16 0.00 0.00

Powered by AerisWeather